Regional Weather Roundup
Issued by NWS

Home | Current Version | Previous Version | Graphics & Text | Print | Product List | Glossary On
Versions: 1 2 3 4 5 6 7 8 9 10 11 12 13 14 15 16 17 18 19 20 21 22 23 24 25 26 27 28 29 30 31 32 33 34 35 36 37 38 39 40 41 42 43 44 45 46 47 48 49 50
000
ASUS43 KDMX 270406
RWRIA

WEATHER ROUNDUP FOR IOWA
NATIONAL WEATHER SERVICE DES MOINES IA
1100 PM CDT WED JUL 26 2017

NOTE: "FAIR" INDICATES FEW OR NO CLOUDS BELOW 12,000 FEET WITH NO
SIGNIFICANT WEATHER AND/OR OBSTRUCTIONS TO VISIBILITY.

* - THESE STATIONS ARE NOT NWS STATIONS...THUS NOT UNDER NWS
QUALITY CONTROL.  THEY ALSO DO NOT REPORT WEATHER SUCH
AS PRECIPITATION OR FOG.

IAZ001>003-012>014-020>022-031>034-043>046-270500-
   NORTHWEST IOWA

CITY           SKY/WX    TMP DP  RH WIND       PRES   REMARKS
CARROLL *      PTCLDY    70  70 100 CALM      30.02R
CHEROKEE *     CLEAR     71  65  81 N5        30.05R
DENISON *      CLEAR     72  70  94 CALM      30.04R
ORANGE CITY *  CLEAR     72  63  73 NE6       30.07R
SHELDON *      CLEAR     63  61  94 N3        30.05S
SIOUX CITY     CLEAR     76  66  71 NE13      30.04R
SPENCER        CLEAR     66  62  87 N6        30.06R
STORM LAKE *   PTCLDY    72  66  83 N12G17    30.05R
$$

IAZ055>058-069>071-079>083-090>094-270500-
   SOUTHWEST IOWA

CITY           SKY/WX    TMP DP  RH WIND       PRES   REMARKS
ATLANTIC *     CLEAR     72  72 100 CALM      30.01S FOG
AUDUBON *      MOCLDY    72  70  94 CALM      30.04R FOG
CLARINDA *       N/A     73  73 100 N5        30.01S FOG
COUNCIL BLFS * MOCLDY    73  73 100 CALM      30.02R FOG
CRESTON *      CLOUDY    75  75 100 N6        30.01F
HARLAN  *      CLEAR     72  72 100 CALM      30.06R
LAMONI         CLOUDY    76  75  97 NW3       29.99S
RED OAK *      CLOUDY    75  75 100 N5        30.01S
SHENANDOAH *   CLOUDY    75  75 100 CALM      30.00S FOG
$$

IAZ047>049-059>061-072>074-084-270500-
   CENTRAL IOWA

CITY           SKY/WX    TMP DP  RH WIND       PRES   REMARKS
AMES           MOCLDY    72  72 100 N6        30.00R
ANKENY *       CLOUDY    73  73 100 N6        30.00R
BOONE *        PTCLDY    70  68  94 N5        30.01R
CHARITON *     CLOUDY    75  73  94 CALM      29.98F
DES MOINES     CLOUDY    75  73  93 N5        29.99R
GRINNELL*      CLOUDY    73  71  94 CALM      30.00S
KNOXVILLE *    CLOUDY    75  72  88 NW5       29.97S
MARSHALLTOWN   CLOUDY    73  71  93 N3        29.98R
NEWTON *       CLOUDY    73  72  94 W3        29.99S
PELLA *        CLOUDY    73  72  95 CALM      30.00R
PERRY *          N/A     71  71  98 CALM      30.01R FOG
$$

IAZ004>006-015-016-023>025-035-036-270500-
   NORTH CENTRAL IOWA

CITY           SKY/WX    TMP DP  RH WIND       PRES   REMARKS
ALGONA *       MOCLDY    70  68  94 N6        30.04R
CLARION *      CLOUDY    72  72 100 CALM      30.02R
ESTHERVILLE    CLEAR     64  63  96 N5        30.05R
FORT DODGE *   MOCLDY    70  68  94 CALM      30.03R
MASON CITY     MOCLDY    71  69  93 NW6       30.03S
FOREST CITY *    N/A     72  68  88 N6        30.02S
WEBSTER CITY * CLOUDY    70  70 100 CALM      30.00R FOG
IOWA FALLS *   MOCLDY    69  67  94 CALM      30.02R
$$

IAZ007>011-017>019-026>030-037>042-050>054-066-270500-
   NORTHEAST IOWA

CITY           SKY/WX    TMP DP  RH WIND       PRES   REMARKS
CHARLES CITY * CLOUDY    72  72 100 NW6       30.01S
DECORAH *      CLOUDY    72  72 100 CALM      29.99S
DUBUQUE          N/A    N/A N/A N/A MISG      29.98R
MONTICELLO *   CLOUDY    72  72 100 CALM      29.96S
WATERLOO       CLOUDY    73  69  87 NW6       29.98R
$$

IAZ064-065-067-068-078-270500-
   EAST CENTRAL IOWA

CITY           SKY/WX    TMP DP  RH WIND       PRES   REMARKS
DAVENPORT      CLOUDY    72  70  93 N5        29.99R
IOWA CITY      CLOUDY    76  72  87 CALM      29.98S
MT. PLEASANT * CLOUDY    74  74 100 CALM      29.97S
MUSCATINE *    CLOUDY    73  72  94 CALM      29.96S
QUAD CITIES    CLOUDY    74  71  91 W3        29.95S
$$

IAZ062-063-075>077-085>089-095>099-270500-
   SOUTHEAST IOWA

CITY           SKY/WX    TMP DP  RH WIND       PRES   REMARKS
BURLINGTON     CLOUDY    74  74 100 CALM      29.96S
FAIRFIELD *    CLOUDY    75  72  88 NW5       29.97S
FORT MADISON * CLOUDY    73  73 100 CALM      29.98R
KEOKUK *       CLOUDY    75  75 100 CALM      29.96S
OSKALOOSA *    DRIZZLE   74  71  89 N6        29.99R
CENTERVILLE *  MOCLDY    75  75 100 CALM      29.99F
OTTUMWA        CLOUDY    78  74  87 N5        29.98R HX  81
WASHINGTON *   CLOUDY    75  73  94 NW6       29.98R
$$

ABBREVIATIONS USED IN REMARKS
   TC - TEMPERATURES IN CELSIUS
  WCI - WIND CHILL INDEX
   HX - HEAT INDEX
  VSB - VISIBILITY
$$




USA.gov is the U.S. government's official web portal to all federal, state and local government web resources and services.